Tracking 30995 objects as of 5-Jul-2025
HD Live streaming from Space Station
objects crossing your sky now

METEOR 2-8 DEB

Track METEOR 2-8 DEB now!
10-day predictions


NORAD ID: 36355
Int'l Code: 1982-025AR
Perigee: 775.3 km
Apogee: 806.4 km
Inclination: 82.5 °
Period: 100.5 minutes
Semi major axis: 7161 km
RCS: 0.0127 m2 (small)
Launch date: March 25, 1982
Source: Commonwealth of Independent States (former USSR) (CIS)
Launch site: PLESETSK MISSILE AND SPACE COMPLEX (PKMTR)

Note: This is SATELLITE DEBRIS
Your satellite tracking list
Your tracking list is empty




NASA's NSSDC Master Catalog

Two Line Element Set (TLE):
1 36355U 82025AR  25184.52358703  .00005871  00000-0  21594-2 0  9996
2 36355  82.5141 108.1594 0021718  17.3057 342.8866 14.32404795161908
Source of the keplerian elements: AFSPC